When you browse on this site, cookies collect data to enhance your experience and personalize the content and advertising you see.
Visit our Privacy Policy to learn more. By continuing to use the site, you agree to this use of cookies and data.
  • In Romania
  • List of Countries
  • For 7 days
  • Water Temperature
  • Satellite Maps
  • Weather Map
  • Weather Widgets
  • user-avatar
    Login

    Hourly Weather Orlando

    Today, 20 May, Monday

    Time Temperature Precipitation Wind Pressure Humidity
    00:00 +26°C° 0 mm 2 mps 759 mmHg 80%
    01:00 +25°C° 0 mm 2 mps 759 mmHg 82%
    02:00 +25°C° 0.1 mm 2 mps 759 mmHg 84%
    03:00 +25°C° 0.1 mm 1 mps 759 mmHg 85%
    04:00 +25°C° 0.1 mm 1 mps 759 mmHg 86%
    05:00 +25°C° 0 mm 1 mps 759 mmHg 84%
    06:00 +26°C° 0 mm 1 mps 760 mmHg 82%
    07:00 +26°C° 0 mm 1 mps 760 mmHg 79%
    08:00 +28°C° 0 mm 1 mps 760 mmHg 69%
    09:00 +30°C° 0 mm 1 mps 760 mmHg 59%
    10:00 +32°C° 0 mm 1 mps 760 mmHg 49%
    11:00 +33°C° 0 mm 1 mps 759 mmHg 44%
    12:00 +34°C° 0 mm 1 mps 759 mmHg 40%
    13:00 +36°C° 0 mm 2 mps 759 mmHg 36%
    14:00 +35°C° 0 mm 2 mps 758 mmHg 39%
    15:00 +35°C° 0 mm 3 mps 758 mmHg 42%
    16:00 +34°C° 0 mm 3 mps 758 mmHg 45%
    17:00 +33°C° 0.1 mm 4 mps 758 mmHg 52%
    18:00 +30°C° 0.1 mm 4 mps 758 mmHg 59%
    19:00 +29°C° 0.1 mm 4 mps 758 mmHg 66%
    20:00 +28°C° 0 mm 3 mps 758 mmHg 68%
    21:00 +28°C° 0 mm 3 mps 758 mmHg 71%
    22:00 +27°C° 0 mm 3 mps 759 mmHg 73%
    23:00 +26°C° 0 mm 3 mps 759 mmHg 75%

    Tomorrow, 21 May, Tuesday

    Time Temperature Precipitation Wind Pressure Humidity
    00:00 +26°C° 0 mm 2 mps 759 mmHg 77%
    01:00 +26°C° 0 mm 2 mps 758 mmHg 79%
    02:00 +25°C° 0 mm 2 mps 758 mmHg 80%
    03:00 +25°C° 0 mm 2 mps 758 mmHg 82%
    04:00 +25°C° 0 mm 2 mps 758 mmHg 83%
    05:00 +25°C° 0 mm 2 mps 758 mmHg 82%
    06:00 +26°C° 0 mm 1 mps 758 mmHg 80%
    07:00 +26°C° 0 mm 1 mps 758 mmHg 79%
    08:00 +28°C° 0 mm 1 mps 758 mmHg 70%
    09:00 +30°C° 0 mm 1 mps 758 mmHg 61%
    10:00 +31°C° 0 mm 1 mps 759 mmHg 52%
    11:00 +34°C° 0 mm 2 mps 758 mmHg 47%
    12:00 +35°C° 0 mm 2 mps 758 mmHg 41%
    13:00 +36°C° 0 mm 2 mps 758 mmHg 35%
    14:00 +36°C° 0 mm 2 mps 758 mmHg 35%
    15:00 +36°C° 0 mm 2 mps 757 mmHg 35%
    16:00 +36°C° 0 mm 2 mps 757 mmHg 35%
    17:00 +35°C° 0 mm 3 mps 757 mmHg 42%
    18:00 +33°C° 0 mm 4 mps 757 mmHg 49%
    19:00 +30°C° 0 mm 4 mps 757 mmHg 56%
    20:00 +29°C° 0 mm 4 mps 758 mmHg 59%
    21:00 +28°C° 0 mm 4 mps 758 mmHg 62%
    22:00 +27°C° 0 mm 3 mps 759 mmHg 65%
    23:00 +27°C° 0 mm 3 mps 759 mmHg 66%

    Day after tomorrow, 22 May, Wednesday

    Time Temperature Precipitation Wind Pressure Humidity
    00:00 +27°C° 0 mm 3 mps 759 mmHg 68%
    01:00 +26°C° 0 mm 2 mps 759 mmHg 69%
    02:00 +26°C° 0 mm 2 mps 759 mmHg 69%
    03:00 +25°C° 0 mm 2 mps 759 mmHg 70%
    04:00 +25°C° 0 mm 1 mps 759 mmHg 71%
    05:00 +25°C° 0 mm 1 mps 759 mmHg 70%
    06:00 +26°C° 0 mm 1 mps 760 mmHg 68%
    07:00 +26°C° 0 mm 1 mps 760 mmHg 67%
    08:00 +28°C° 0 mm 1 mps 760 mmHg 59%
    09:00 +30°C° 0 mm 2 mps 761 mmHg 52%
    10:00 +31°C° 0 mm 2 mps 761 mmHg 44%
    11:00 +34°C° 0 mm 2 mps 761 mmHg 40%
    12:00 +35°C° 0 mm 3 mps 761 mmHg 35%
    13:00 +36°C° 0 mm 4 mps 761 mmHg 31%
    14:00 +36°C° 0 mm 4 mps 761 mmHg 32%
    15:00 +35°C° 0 mm 5 mps 761 mmHg 34%
    16:00 +35°C° 0 mm 5 mps 760 mmHg 35%
    17:00 +33°C° 0 mm 5 mps 761 mmHg 42%
    18:00 +30°C° 0 mm 5 mps 761 mmHg 49%
    19:00 +29°C° 0 mm 4 mps 761 mmHg 56%
    20:00 +28°C° 0 mm 4 mps 762 mmHg 59%
    21:00 +27°C° 0 mm 4 mps 762 mmHg 63%
    22:00 +26°C° 0 mm 3 mps 763 mmHg 66%
    23:00 +26°C° 0 mm 3 mps 763 mmHg 69%

    23 May, Thursday

    Time Temperature Precipitation Wind Pressure Humidity
    00:00 +26°C° 0 mm 3 mps 763 mmHg 73%
    01:00 +26°C° 0 mm 2 mps 762 mmHg 76%
    02:00 +26°C° 0 mm 2 mps 762 mmHg 79%
    03:00 +26°C° 0 mm 3 mps 762 mmHg 82%
    04:00 +25°C° 0 mm 3 mps 762 mmHg 84%
    05:00 +26°C° 0 mm 3 mps 762 mmHg 82%
    06:00 +26°C° 0 mm 3 mps 762 mmHg 79%
    07:00 +26°C° 0 mm 4 mps 763 mmHg 77%
    08:00 +28°C° 0 mm 4 mps 763 mmHg 70%
    09:00 +29°C° 0 mm 4 mps 764 mmHg 63%
    10:00 +32°C° 0 mm 5 mps 764 mmHg 55%
    11:00 +33°C° 0 mm 5 mps 764 mmHg 52%
    12:00 +34°C° 0 mm 5 mps 763 mmHg 49%
    13:00 +34°C° 0 mm 6 mps 763 mmHg 46%
    14:00 +34°C° 0 mm 6 mps 763 mmHg 47%
    15:00 +34°C° 0 mm 6 mps 762 mmHg 48%
    16:00 +33°C° 0 mm 6 mps 762 mmHg 49%
    17:00 +32°C° 0 mm 5 mps 762 mmHg 54%
    18:00 +29°C° 0 mm 5 mps 762 mmHg 60%
    19:00 +28°C° 0 mm 4 mps 763 mmHg 66%
    20:00 +27°C° 0 mm 4 mps 763 mmHg 69%
    21:00 +26°C° 0 mm 4 mps 763 mmHg 72%
    22:00 +26°C° 0 mm 3 mps 764 mmHg 75%
    23:00 +25°C° 0 mm 3 mps 763 mmHg 76%

    24 May, Friday

    Time Temperature Precipitation Wind Pressure Humidity
    00:00 +25°C° 0 mm 3 mps 763 mmHg 78%
    01:00 +24°C° 0 mm 2 mps 763 mmHg 79%
    02:00 +24°C° 0 mm 2 mps 762 mmHg 81%
    03:00 +24°C° 0 mm 2 mps 762 mmHg 82%
    04:00 +24°C° 0 mm 2 mps 761 mmHg 83%
    05:00 +24°C° 0 mm 2 mps 762 mmHg 81%
    06:00 +25°C° 0 mm 2 mps 762 mmHg 79%
    07:00 +25°C° 0 mm 2 mps 762 mmHg 76%
    08:00 +27°C° 0 mm 2 mps 763 mmHg 68%
    09:00 +29°C° 0 mm 2 mps 763 mmHg 59%
    10:00 +31°C° 0 mm 3 mps 763 mmHg 51%
    11:00 +33°C° 0 mm 3 mps 763 mmHg 46%
    12:00 +35°C° 0 mm 3 mps 762 mmHg 41%
    13:00 +36°C° 0 mm 3 mps 762 mmHg 37%
    14:00 +36°C° 0 mm 4 mps 761 mmHg 37%
    15:00 +36°C° 0 mm 4 mps 761 mmHg 37%
    16:00 +36°C° 0 mm 4 mps 761 mmHg 37%
    17:00 +34°C° 0 mm 4 mps 761 mmHg 43%
    18:00 +32°C° 0 mm 4 mps 761 mmHg 49%
    19:00 +30°C° 0 mm 3 mps 761 mmHg 55%
    20:00 +29°C° 0 mm 3 mps 761 mmHg 60%
    21:00 +27°C° 0 mm 3 mps 761 mmHg 64%
    22:00 +26°C° 0 mm 3 mps 762 mmHg 68%
    23:00 +26°C° 0 mm 2 mps 761 mmHg 70%

    25 May, Saturday

    Time Temperature Precipitation Wind Pressure Humidity
    00:00 +26°C° 0 mm 2 mps 761 mmHg 73%
    01:00 +25°C° 0 mm 1 mps 761 mmHg 75%
    02:00 +25°C° 0 mm 1 mps 760 mmHg 76%
    03:00 +25°C° 0 mm 1 mps 760 mmHg 77%
    04:00 +24°C° 0 mm 1 mps 760 mmHg 79%
    05:00 +25°C° 0 mm 1 mps 761 mmHg 76%
    06:00 +26°C° 0 mm 1 mps 761 mmHg 74%
    07:00 +26°C° 0 mm 1 mps 761 mmHg 72%
    08:00 +29°C° 0 mm 1 mps 761 mmHg 64%
    09:00 +31°C° 0 mm 1 mps 761 mmHg 56%
    10:00 +31°C° 0 mm 0 mps 762 mmHg 48%
    11:00 +34°C° 0 mm 1 mps 761 mmHg 44%
    12:00 +36°C° 0 mm 1 mps 761 mmHg 40%
    13:00 +38°C° 0 mm 2 mps 761 mmHg 36%
    14:00 +38°C° 0 mm 2 mps 760 mmHg 36%
    15:00 +37°C° 0 mm 2 mps 760 mmHg 37%
    16:00 +37°C° 0 mm 2 mps 759 mmHg 38%
    17:00 +36°C° 0 mm 2 mps 760 mmHg 42%
    18:00 +35°C° 0 mm 3 mps 760 mmHg 45%
    19:00 +34°C° 0 mm 3 mps 760 mmHg 49%
    20:00 +31°C° 0 mm 3 mps 760 mmHg 53%
    21:00 +30°C° 0 mm 3 mps 760 mmHg 57%
    22:00 +29°C° 0 mm 2 mps 760 mmHg 60%
    23:00 +29°C° 0 mm 2 mps 760 mmHg 62%
    Show more